Wilmington, DE

8:25 AM EST on February 22, 2018 (GMT -0500)
New Castle County

Weather History for KILG - March, 2014

Change the Weather History Date:

Sunday, March 16, 2014

  Actual Average Record
Temperature  
Mean Temperature 37 °F 43 °F  
Max Temperature 44 °F 52 °F 82 °F (1945)
Min Temperature 30 °F 34 °F 10 °F (1911)
Degree Days  
Heating Degree Days 28 22  
Month to date heating degree days 456 391  
Since 1 July heating degree days 4311 4014  
Cooling Degree Days 0 0  
Month to date cooling degree days 0 0  
Year to date cooling degree days 0 0  
Moisture  
Dew Point 15 °F    
Average Humidity 40    
Maximum Humidity 61    
Minimum Humidity 19    
Precipitation  
Precipitation T in 0.14 in 2.10 in (2007)
Month to date precipitation 0.59 1.88  
Year to date precipitation 9.17 7.57  
Snow  
Snow T in 0.10 in 2.90 in (1978)
Month to date snowfall 4.5 1.5  
Since 1 July snowfall 52.9 19.5  
Snow Depth 0.00 in    
Sea Level Pressure  
Sea Level Pressure 30.15 in    
Wind  
Wind Speed 11 mph (North)    
Max Wind Speed 22 mph    
Max Gust Speed 28 mph    
Visibility 10 miles    
Events Snow    
T = Trace of Precipitation, MM = Missing Value Source: NWS Daily Summary

Daily Weather History Graph

Daily Weather History Graph

Search for Another Location

Airport or City:

Trip Planner

Search our weather history database for the weather conditions in past years. The results will help you decide how hot, cold, wet, or windy it might be!

Date:

Astronomy

Mar. 16, 2014 Rise Set
Actual Time 7:12 AM EDT 7:10 PM EDT
Civil Twilight 6:45 AM EDT 7:37 PM EDT
Nautical Twilight 6:14 AM EDT 8:08 PM EDT
Astronomical Twilight 5:42 AM EDT 8:40 PM EDT
Moon 7:25 PM EDT (3/16) 6:54 AM EDT (3/16)
Length of Visible Light 12h 51m
Length of Day
11h 58m
Full, 100% of the Moon is Illuminated
Mar 16
Full
Mar 16
Full
Mar 23
Last Quarter
Mar 30
New
Apr 7
First Quarter

Hourly Weather History & Observations

Time (EDT) Temp. Windchill Dew Point Humidity Pressure Visibility Wind Dir Wind Speed Gust Speed Precip Events Conditions
12:51 AM 42.1 °F 36.6 °F 25.0 °F 51% 30.06 in 10.0 mi NNW 9.2 mph - N/A   Clear
1:51 AM 42.1 °F 35.7 °F 26.1 °F 53% 30.09 in 10.0 mi NNW 11.5 mph - N/A   Clear
2:51 AM 39.9 °F 32.9 °F 26.1 °F 58% 30.09 in 10.0 mi NNW 11.5 mph - N/A   Clear
3:51 AM 39.9 °F 32.9 °F 24.1 °F 53% 30.08 in 10.0 mi NNW 11.5 mph - N/A   Clear
4:51 AM 35.1 °F 31.0 °F 23.0 °F 61% 30.11 in 10.0 mi NW 4.6 mph - N/A   Clear
5:51 AM 35.1 °F 27.4 °F 21.9 °F 59% 30.13 in 10.0 mi NNW 10.4 mph - N/A   Clear
6:51 AM 33.1 °F 26.1 °F 21.0 °F 61% 30.16 in 10.0 mi NNW 8.1 mph - N/A   Clear
7:51 AM 34.0 °F 27.2 °F 21.0 °F 59% 30.19 in 10.0 mi North 8.1 mph - N/A   Clear
8:51 AM 36.0 °F 28.5 °F 16.0 °F 44% 30.19 in 10.0 mi North 10.4 mph - N/A   Clear
9:51 AM 39.0 °F 32.8 °F 12.9 °F 34% 30.22 in 10.0 mi North 9.2 mph - N/A   Clear
10:51 AM 41.0 °F 33.5 °F 10.9 °F 29% 30.19 in 10.0 mi North 13.8 mph - N/A   Clear
11:51 AM 42.1 °F 38.4 °F 9.0 °F 26% 30.19 in 10.0 mi Variable 5.8 mph - N/A   Clear
12:51 PM 42.1 °F 35.7 °F 7.0 °F 24% 30.19 in 10.0 mi NNE 11.5 mph 18.4 mph N/A   Clear
1:51 PM 42.1 °F 36.6 °F 6.1 °F 23% 30.19 in 10.0 mi NW 9.2 mph - N/A   Clear
2:51 PM 42.1 °F 38.4 °F 3.9 °F 21% 30.17 in 10.0 mi Variable 5.8 mph - N/A   Mostly Cloudy
3:51 PM 42.1 °F 37.7 °F 6.1 °F 23% 30.19 in 10.0 mi Variable 6.9 mph - N/A   Mostly Cloudy
4:51 PM 41.0 °F 36.4 °F 8.1 °F 26% 30.18 in 10.0 mi NNW 6.9 mph - N/A   Overcast
5:51 PM 39.0 °F 31.0 °F 9.0 °F 29% 30.17 in 10.0 mi NNE 13.8 mph - N/A   Overcast
6:51 PM 36.0 °F 28.5 °F 16.0 °F 44% 30.18 in 10.0 mi NW 10.4 mph - N/A   Overcast
7:51 PM 34.0 °F 25.0 °F 19.0 °F 54% 30.17 in 9.0 mi NE 12.7 mph - 0.00 in Snow Light Snow
8:51 PM 34.0 °F 23.8 °F 17.1 °F 50% 30.15 in 10.0 mi NE 16.1 mph 26.5 mph 0.00 in   Overcast
9:51 PM 34.0 °F 24.2 °F 12.0 °F 40% 30.14 in 10.0 mi ENE 15.0 mph - N/A   Overcast
10:51 PM 34.0 °F 25.0 °F 10.0 °F 37% 30.12 in 10.0 mi NNE 12.7 mph - N/A   Overcast
11:51 PM 32.0 °F 20.8 °F 12.0 °F 44% 30.12 in 10.0 mi NNE 17.3 mph 23.0 mph N/A   Overcast